Location: Bremen
(53.0793°N, 8.8017°E)
Time: 12:24:16
(UTC+02:00)

Transit 2A Rocket - Pass Details

Date: 22 June 2024
Orbit: 582 x 910 km, 66.7° (Epoch: 19 July)

Event Time Altitude Azimuth Distance (km) Brightness Sun altitude
Rises 01:33:23 0° 287° (WNW) 3,308 8.5 -13.5°
Reaches altitude 10° 01:36:19 10° 302° (WNW) 2,435 8.0 -13.5°
Maximum altitude 01:40:40 22° 353° (N) 1,801 7.9 -13.4°
Drops below altitude 10° 01:45:14 10° 43° (NE) 2,566 8.5 -13.4°
Sets 01:48:25 0° 58° (ENE) 3,533 9.0 -13.3°
